TimeCST,TemperatureF,Dew PointF,Humidity,Sea Level PressureIn,VisibilityMPH,Wind Direction,Wind SpeedMPH,Gust SpeedMPH,PrecipitationIn,Events,Conditions,WindDirDegrees,DateUTC
12:15 AM,50.0,44.6,82,30.28,10.0,NNE,4.6,-,N/A,,Clear,30,2012-11-30 06:15:00
12:35 AM,50.0,44.6,82,30.28,10.0,Calm,Calm,-,N/A,,Clear,0,2012-11-30 06:35:00
12:55 AM,50.0,44.6,82,30.28,10.0,Calm,Calm,-,N/A,,Clear,0,2012-11-30 06:55:00
1:15 AM,50.0,44.6,82,30.28,10.0,Calm,Calm,-,N/A,,Clear,0,2012-11-30 07:15:00
1:35 AM,50.0,44.6,82,30.28,10.0,Calm,Calm,-,N/A,,Clear,0,2012-11-30 07:35:00
1:55 AM,50.0,44.6,82,30.28,10.0,Calm,Calm,-,N/A,,Clear,0,2012-11-30 07:55:00
2:15 AM,50.0,44.6,82,30.27,10.0,Calm,Calm,-,N/A,,Clear,0,2012-11-30 08:15:00
2:35 AM,50.0,44.6,82,30.27,10.0,Calm,Calm,-,N/A,,Clear,0,2012-11-30 08:35:00
2:55 AM,50.0,44.6,82,30.27,10.0,Calm,Calm,-,N/A,,Clear,0,2012-11-30 08:55:00
3:15 AM,50.0,44.6,82,30.27,10.0,Calm,Calm,-,N/A,,Clear,0,2012-11-30 09:15:00
3:35 AM,50.0,44.6,82,30.27,10.0,NNE,3.5,-,N/A,,Clear,20,2012-11-30 09:35:00
3:55 AM,50.0,44.6,82,30.26,10.0,Calm,Calm,-,N/A,,Scattered Clouds,0,2012-11-30 09:55:00
4:15 AM,50.0,44.6,82,30.26,10.0,NE,3.5,-,N/A,,Scattered Clouds,50,2012-11-30 10:15:00
4:35 AM,50.0,44.6,82,30.26,10.0,NNE,3.5,-,N/A,,Scattered Clouds,30,2012-11-30 10:35:00
4:55 AM,50.0,44.6,82,30.27,10.0,Calm,Calm,-,N/A,,Clear,0,2012-11-30 10:55:00
5:15 AM,50.0,44.6,82,30.28,10.0,NNE,4.6,-,N/A,,Clear,20,2012-11-30 11:15:00
5:35 AM,48.2,44.6,87,30.28,10.0,NNE,3.5,-,N/A,,Clear,30,2012-11-30 11:35:00
5:55 AM,48.2,44.6,87,30.28,10.0,NE,3.5,-,N/A,,Clear,40,2012-11-30 11:55:00
6:15 AM,48.2,44.6,87,30.28,10.0,Calm,Calm,-,N/A,,Clear,0,2012-11-30 12:15:00
6:35 AM,48.2,44.6,87,30.28,10.0,NE,4.6,-,N/A,,Clear,50,2012-11-30 12:35:00
6:55 AM,50.0,44.6,82,30.28,10.0,NE,4.6,-,N/A,,Clear,40,2012-11-30 12:55:00
7:15 AM,50.0,46.4,87,30.28,10.0,NNE,4.6,-,N/A,,Clear,30,2012-11-30 13:15:00
7:35 AM,51.8,46.4,82,30.28,10.0,NNE,3.5,-,N/A,,Clear,30,2012-11-30 13:35:00
7:55 AM,53.6,48.2,82,30.28,10.0,NE,5.8,-,N/A,,Clear,50,2012-11-30 13:55:00
8:15 AM,55.4,50.0,82,30.29,10.0,NE,4.6,-,N/A,,Clear,50,2012-11-30 14:15:00
8:35 AM,59.0,51.8,77,30.29,10.0,NE,3.5,-,N/A,,Clear,50,2012-11-30 14:35:00
8:55 AM,60.8,53.6,77,30.30,10.0,NE,4.6,-,N/A,,Clear,50,2012-11-30 14:55:00
9:15 AM,62.6,55.4,77,30.30,10.0,ENE,5.8,-,N/A,,Clear,60,2012-11-30 15:15:00
9:35 AM,64.4,55.4,73,30.30,10.0,NE,8.1,-,N/A,,Clear,50,2012-11-30 15:35:00
9:55 AM,66.2,55.4,68,30.30,10.0,NE,5.8,-,N/A,,Clear,40,2012-11-30 15:55:00
10:15 AM,68.0,57.2,68,30.29,10.0,North,-9999.0,-,N/A,,Clear,0,2012-11-30 16:15:00
10:35 AM,68.0,57.2,68,30.29,10.0,ENE,12.7,-,N/A,,Clear,60,2012-11-30 16:35:00
10:55 AM,68.0,59.0,73,30.28,10.0,NE,9.2,-,N/A,,Clear,50,2012-11-30 16:55:00
11:15 AM,69.8,59.0,68,30.28,10.0,East,8.1,-,N/A,,Clear,80,2012-11-30 17:15:00
11:35 AM,69.8,57.2,64,30.27,10.0,East,5.8,-,N/A,,Clear,80,2012-11-30 17:35:00
11:55 AM,69.8,57.2,64,30.26,10.0,ENE,8.1,-,N/A,,Clear,70,2012-11-30 17:55:00
12:15 PM,69.8,57.2,64,30.25,10.0,NE,6.9,-,N/A,,Clear,50,2012-11-30 18:15:00
12:35 PM,69.8,57.2,64,30.24,10.0,East,8.1,-,N/A,,Scattered Clouds,90,2012-11-30 18:35:00
12:55 PM,71.6,57.2,60,30.23,10.0,East,9.2,-,N/A,,Scattered Clouds,90,2012-11-30 18:55:00
1:15 PM,69.8,59.0,68,30.22,10.0,ENE,8.1,-,N/A,,Clear,70,2012-11-30 19:15:00
1:35 PM,71.6,59.0,64,30.21,10.0,ENE,10.4,-,N/A,,Clear,60,2012-11-30 19:35:00
1:55 PM,69.8,59.0,68,30.21,10.0,ENE,8.1,-,N/A,,Scattered Clouds,70,2012-11-30 19:55:00
2:15 PM,69.8,59.0,68,30.21,10.0,ENE,11.5,-,N/A,,Mostly Cloudy,70,2012-11-30 20:15:00
2:35 PM,69.8,59.0,68,30.20,10.0,ENE,11.5,-,N/A,,Scattered Clouds,60,2012-11-30 20:35:00
2:55 PM,69.8,57.2,64,30.20,10.0,ENE,10.4,-,N/A,,Clear,60,2012-11-30 20:55:00
3:15 PM,69.8,57.2,64,30.21,10.0,ENE,8.1,-,N/A,,Clear,70,2012-11-30 21:15:00
3:35 PM,68.0,55.4,64,30.21,10.0,ENE,11.5,-,N/A,,Scattered Clouds,60,2012-11-30 21:35:00
3:55 PM,68.0,55.4,64,30.21,10.0,ENE,9.2,-,N/A,,Scattered Clouds,70,2012-11-30 21:55:00
4:15 PM,66.2,57.2,73,30.21,10.0,ENE,10.4,-,N/A,,Clear,70,2012-11-30 22:15:00
4:35 PM,64.4,55.4,73,30.21,10.0,ENE,6.9,-,N/A,,Scattered Clouds,60,2012-11-30 22:35:00
4:55 PM,64.4,55.4,73,30.21,10.0,ENE,4.6,-,N/A,,Mostly Cloudy,60,2012-11-30 22:55:00
5:15 PM,64.4,55.4,73,30.22,10.0,ENE,3.5,-,N/A,,Overcast,70,2012-11-30 23:15:00
5:35 PM,64.4,57.2,77,30.22,10.0,ENE,5.8,-,N/A,,Overcast,60,2012-11-30 23:35:00
5:55 PM,64.4,57.2,77,30.22,10.0,ENE,6.9,-,N/A,,Mostly Cloudy,60,2012-11-30 23:55:00
6:15 PM,64.4,57.2,77,30.22,10.0,ENE,9.2,-,N/A,,Mostly Cloudy,70,2012-12-01 00:15:00
6:35 PM,64.4,57.2,77,30.23,10.0,ENE,9.2,-,N/A,Rain,Light Rain,70,2012-12-01 00:35:00
7:15 PM,64.4,57.2,77,30.23,10.0,ENE,6.9,-,N/A,,Mostly Cloudy,70,2012-12-01 01:15:00
7:35 PM,64.4,57.2,77,30.23,10.0,ENE,6.9,-,N/A,,Mostly Cloudy,70,2012-12-01 01:35:00
7:55 PM,64.4,57.2,77,30.24,10.0,ENE,6.9,-,N/A,,Mostly Cloudy,60,2012-12-01 01:55:00
8:15 PM,64.4,57.2,77,30.24,10.0,ENE,4.6,-,N/A,,Overcast,70,2012-12-01 02:15:00
8:35 PM,64.4,57.2,77,30.24,10.0,East,3.5,-,N/A,,Overcast,80,2012-12-01 02:35:00
8:55 PM,62.6,57.2,82,30.24,10.0,Calm,Calm,-,N/A,,Overcast,0,2012-12-01 02:55:00
9:15 PM,62.6,59.0,88,30.24,10.0,SSE,3.5,-,N/A,Rain,Rain,150,2012-12-01 03:15:00
9:35 PM,64.4,59.0,83,30.25,10.0,SSE,5.8,-,N/A,,Overcast,160,2012-12-01 03:35:00
10:15 PM,64.4,59.0,83,30.25,10.0,Calm,Calm,-,N/A,,Overcast,0,2012-12-01 04:15:00
10:35 PM,64.4,59.0,83,30.24,10.0,South,3.5,-,N/A,,Overcast,190,2012-12-01 04:35:00
11:15 PM,64.4,59.0,83,30.24,10.0,SSW,3.5,-,N/A,,Overcast,200,2012-12-01 05:15:00
11:35 PM,64.4,59.0,83,30.24,10.0,Calm,Calm,-,N/A,,Overcast,0,2012-12-01 05:35:00
11:55 PM,64.4,59.0,83,30.23,10.0,Calm,Calm,-,N/A,,Overcast,0,2012-12-01 05:55:00